AirNav   Everest Fuels
 
 1023 users online  

6J4 Saluda County Airport
Saluda, South Carolina, USA

GOING TO SALUDA?


FAA INFORMATION EFFECTIVE 15 JULY 2021

Location

FAA Identifier: 6J4
Lat/Long: 33-55-36.4550N 081-47-40.6600W
33-55.607583N 081-47.677667W
33.9267931,-81.7946278
(estimated)
Elevation: 539.2 ft. / 164 m (estimated)
Variation: 06W (2010)
From city: 4 miles S of SALUDA, SC
Time zone: UTC -4 (UTC -5 during Standard Time)
Zip code: 29138

Airport Operations

Airport use: Open to the public
Activation date: 01/1970
Control tower: no
ARTCC: ATLANTA CENTER
FSS: ANDERSON FLIGHT SERVICE STATION
NOTAMs facility: AND (NOTAM-D service available)
Attendance: MON-FRI 0800-1700, ALL SAT 0800-1200
Wind indicator: lighted
Segmented circle: yes
Lights: ACTVT PAPI RWY 01 & 19; MIRL RWY 01/19 - CTAF.
Beacon: white-green (lighted land airport)
Operates sunset to sunrise.

Airport Communications

CTAF: 122.9
AUGUSTA APPROACH: 119.15 124.15 ;WHEN AUGUSTA APCH CTL CLSD
COLUMBIA APPROACH: 126.8
AUGUSTA DEPARTURE: 119.15 124.15 ;WHEN AUGUSTA APCH CTL CLSD
COLUMBIA DEPARTURE: 126.8
WX AWOS-3 at AIK (18 nm S): 118.025 (803-643-8664)

Nearby radio navigation aids

VOR radial/distance  VOR name  Freq  Var
IRQr058/22.6COLLIERS VORTAC113.9004W
GRDr138/26.4GREENWOOD VORTAC115.5001W
CAEr278/37.1COLUMBIA VORTAC114.7002W

 
NDB name  Hdg/Dist  Freq  Var  ID
AIKEN346/17.534706WAIK .- .. -.-
ENOREE206/24.427807WEOE . --- .
CORONACA150/24.423907WGIW --. .. .--
EMORY024/29.638504WEMR . -- .-.

Airport Services

Fuel available: 100LL
Parking: hangars and tiedowns
Airframe service: MAJOR
Powerplant service: MAJOR
Bottled oxygen: NONE
Bulk oxygen: NONE

Runway Information

Runway 1/19

Dimensions: 3189 x 60 ft. / 972 x 18 m
Surface: asphalt, in good condition
Weight bearing capacity: 
Single wheel: 11.3
Runway edge lights: medium intensity
RUNWAY 1  RUNWAY 19
Latitude: 33-55.347667N33-55.867500N
Longitude: 081-47.725000W081-47.630333W
Elevation: 536.8 ft.522.3 ft.
Traffic pattern: leftleft
Runway heading: 015 magnetic, 009 true195 magnetic, 189 true
Markings: nonprecision, in good conditionnonprecision, in good condition
Visual slope indicator: 2-light PAPI on left (3.00 degrees glide path)2-light PAPI on left
Runway end identifier lights: nono
Touchdown point: yes, no lightsyes, no lights
Obstructions: 27 ft. tree, 726 ft. from runway, 190 ft. left of centerline, 19:1 slope to clear
BRUSH GROWING ON BOTH SIDES OF RWY.
113 ft. trees, 2035 ft. from runway, 271 ft. right of centerline, 16:1 slope to clear
BRUSH GROWING ON BOTH SIDES OF RWY.

Airport Ownership and Management from official FAA records

Ownership: Publicly-owned
Owner: SALUDA COUNTY
400 WEST HIGHLAND STREET
SALUDA, SC 29138
Phone 864-445-4500
Manager: JILL WARREN
111 LAW ENFORCEMENT DRIVE
SALUDA, SC 29138
Phone 864-445-2529

Airport Operational Statistics

Aircraft based on the field: 9
Single engine airplanes: 7
Helicopters: 2
    
Aircraft operations: avg 27/week *
57% transient general aviation
43% local general aviation
* for 12-month period ending 25 June 2020

Additional Remarks

30 FT DROP OFF N END OF RWY 01.
FOR CD CTC AUGUSTA APCH AT 706-771-1777. WHEN AUGUSTA APCH CLSD, FOR CD CTC COLUMBIA APCH AT 803-822-4511.

Instrument Procedures

NOTE: All procedures below are presented as PDF files. If you need a reader for these files, you should download the free Adobe Reader.

NOT FOR NAVIGATION. Please procure official charts for flight.
FAA instrument procedures published for use from 15 July 2021 at 0901Z to 12 August 2021 at 0900z.

 
IAPs - Instrument Approach Procedures
RNAV (GPS) RWY 01 **CHANGED**   download (203KB)
RNAV (GPS) RWY 19 **CHANGED**   download (220KB)
NOTE: Special Take-Off Minimums/Departure Procedures apply   download (141KB)

Other nearby airports with instrument procedures:

KAIK - Aiken Regional Airport (18 nm S)
KEOE - Newberry County Airport (24 nm N)
KGRD - Greenwood County Airport (27 nm NW)
6J0 - Lexington County Airport (28 nm E)
KDNL - Daniel Field Airport (30 nm SW)
 
Loc | Ops | Rwys | IFR | FBO | Links
Com | Nav | Svcs | Stats | Notes
Area around 6J4 (Saluda County Airport)
 
Road maps at: MapQuest Bing Google
 
Aerial photo
WARNING: Photo may not be current or correct
Aerial photo of 6J4 (Saluda County Airport)
Do you have a better or more recent aerial photo of Saluda County Airport that you would like to share? If so, please send us your photo.

 
Sectional chart

 
Airport distance calculator
Flying to Saluda County Airport? Find the distance to fly.

From to 6J4

Sunrise and sunset
Times for 31-Jul-2021
 Local
(UTC-4)
 Zulu
(UTC)
Morning civil twilight06:1210:12
Sunrise06:3910:39
Sunset20:2800:28
Evening civil twilight20:5500:55

Current date and time
Zulu (UTC)  31-Jul-2021 23:03:09
Local (UTC-4)  31-Jul-2021 19:03:09
 
METAR
KAIK 
18nm S 
312255Z AUTO 19006KT 10SM CLR 32/25 A2993 RMK AO2 LTG DSNT NE THRU SE T03170250
KEOE 
24nm N 
312255Z AUTO 35003KT 10SM CLR 31/22 A2995 RMK AO2
KGRD 
26nm NW 
312256Z AUTO 26004KT 10SM CLR 30/23 A2994 RMK AO2 SLP128 T03000233
KDNL 
30nm SW 
312253Z AUTO 32003KT 10SM CLR 33/24 A2991 RMK AO2 SLP122 T03330239
KCAE 
34nm E 
312256Z 31006KT 6SM HZ SCT041 SCT060 BKN095 34/23 A2989 RMK AO2 LTG DSNT E-SW SLP116 T03390233
KAGS 
35nm S 
312253Z 22004KT 10SM CLR 33/26 A2988 RMK AO2 SLP117 T03280256
TAF
KDNL 
30nm SW 
312034Z 3121/0118 25008KT P6SM VCTS SCT040CB BKN250 TEMPO 3121/3122 6SM -TSRA SCT040CB BKN120 FM010100 VRB04KT P6SM BKN250
KCAE 
34nm E 
312208Z 3122/0118 25008KT 6SM HZ VCTS SCT040CB BKN250 FM010100 VRB03KT P6SM BKN250
KAGS 
35nm S 
312034Z 3121/0118 25008KT P6SM VCTS SCT040CB BKN250 TEMPO 3121/3122 VRB15G25KT 6SM -TSRA SCT040CB BKN120 FM010100 VRB03KT P6SM BKN250
NOTAMs
Click for the latest NOTAMs
NOTAMs are issued by the DoD/FAA and will open in a separate window not controlled by AirNav.

 

 
 

FBO, Fuel Providers, and Aircraft Ground Support

  
 Business Name 
 
 Contact 
 
 Services / Description 
 
Fuel Prices
 
Comments
  
Saluda County Airport 864-445-2529
803-317-8696
[web site]
[email]
Airport management, Aviation fuel, Aircraft parking (ramp or tiedown), Hangar leasing / sales, Internet access, Restrooms, Showers

More info about Saluda County Airport
Titan
100LL
SS $4.10 
GUARANTEED
 
   5 read write
SS=Self service
Update Fuel Prices
 

Would you like to see your business listed on this page?

 If your business provides an interesting product or service to pilots, flight crews, aircraft, or users of the Saluda County Airport, you should consider listing it here.  To start the listing process, click on the button below
 
Add a business
 

Other Pages about Saluda County Airport

saludacounty.sc.gov/...
 
Update a link
 
Copyright © AirNav, LLC. All rights reserved. Privacy Policy  Contact